Weather in Ust-Kurdyum

Russia / Saratov Oblast     51°38′42″N   46°12′21″E
temp.,
°C
wind,
m/s
gust,
m/s
humid.,
%
clouds,
%
prec.,
mm/h
press.,
hPa
HPBL,
m
23 june, wed
wed2301:00+23ne11570 0.0 102011
04:00+22ne12623 0.0 102011
07:00+24ene12630 0.0 102090
10:00+29ene22500 0.0 1020442
13:00+33ene22380 0.0 10201471
16:00+34ene22310 0.0 10192623
19:00+32n11431 0.0 101823
22:00+26nne335280 0.0 101939
24 june, thu
thu2401:00+22ene227472 0.0 101912
04:00+21n11784 0.0 101911
07:00+24ne227041 0.0 1020139
10:00+28ne22544 0.0 1019550
13:00+31ne32465 0.0 10191453
16:00+32n33415 0.0 10182315
19:00+28n696035 0.1 1018342
22:00+22nne22720 0.5 101817
25 june, fri
fri2501:00+21n22700 0.0 101720
04:00+20n228536 0.0 101819
07:00+23nne12732 0.0 1018144
10:00+28nne23560 0.0 1017566
13:00+31ene34450 0.0 10171435
16:00+33ne33412 0.0 10161838
19:00+32ne23510 0.0 1015507
22:00+25e11630 0.0 101511
26 june, sat
sat2601:00+23wnw117116 0.0 101511
04:00+22n22785 0.0 101511
07:00+25nne237257 0.0 1015146
10:00+29nne225593 0.0 1014570
13:00+32nne22445 0.0 10141773
16:00+33nne33395 0.0 10142254
19:00+32n24525 0.0 1013148
22:00+26n22618 0.0 101311
27 june, sun
sun2701:00+24n11690 0.0 101311
04:00+22n11740 0.0 101311
07:00+25ne12710 0.0 1014119
10:00+30ene23550 0.0 1014691
13:00+33ne22430 0.0 10131871
16:00+34nne33370 0.0 10132372
19:00+33e12470 0.0 1012347
22:00+26e33630 0.0 101342